Tracking 31027 objects as of 19-Jul-2025
HD Live streaming from Space Station
objects crossing your sky now

CZ-6A DEB

Track CZ-6A DEB now!
10-day predictions


NORAD ID: 54331
Int'l Code: 2022-151CA
Perigee: 829.5 km
Apogee: 1,004.9 km
Inclination: 98.9 °
Period: 103.2 minutes
Semi major axis: 7288 km
RCS: Unknown
Launch date: November 11, 2022
Source: People's Republic of China (PRC)
Launch site: Taiyaun Space Center, China (TSC)

Note: This is SATELLITE DEBRIS
Your satellite tracking list
Your tracking list is empty




NASA's NSSDC Master Catalog

Two Line Element Set (TLE):
1 54331U 22151CA  25199.86345621  .00000652  00000-0  48363-3 0  9998
2 54331  98.8647 176.6902 0120323 274.9380  83.8054 13.95314060135936
Source of the keplerian elements: AFSPC